• In Deutschland
  • Länderverzeichnis
  • Für 7 Tage
  • Wassertemperatur
  • Satellitenkarten
  • Wetterkarte
  • Widgets
  • user-avatar
    Anmelden

    Stündliche Wetter Eisenstadt

    Heute, 30 April, Sonntag

    Zeit Temperatur Niederschläge Wind Luftdruck Luftfeuchtigkeit
    00:00 +2°C° 0 mm 1 m/S 722 mmHg 85%
    01:00 +2°C° 0 mm 1 m/S 722 mmHg 83%
    02:00 +1°C° 0 mm 1 m/S 722 mmHg 84%
    03:00 +1°C° 0 mm 1 m/S 722 mmHg 85%
    04:00 0°C° 0 mm 0 m/S 722 mmHg 86%
    05:00 +2°C° 0 mm 0 m/S 723 mmHg 79%
    06:00 +5°C° 0 mm 0 m/S 723 mmHg 72%
    07:00 +7°C° 0 mm 0 m/S 724 mmHg 65%
    08:00 +9°C° 0 mm 1 m/S 724 mmHg 61%
    09:00 +10°C° 0 mm 1 m/S 723 mmHg 57%
    10:00 +12°C° 0 mm 2 m/S 723 mmHg 53%
    11:00 +12°C° 0 mm 2 m/S 723 mmHg 52%
    12:00 +12°C° 0 mm 3 m/S 723 mmHg 51%
    13:00 +13°C° 0 mm 3 m/S 723 mmHg 50%
    14:00 +13°C° 0 mm 3 m/S 722 mmHg 52%
    15:00 +12°C° 0 mm 4 m/S 722 mmHg 54%
    16:00 +12°C° 0 mm 4 m/S 722 mmHg 57%
    17:00 +11°C° 0 mm 3 m/S 722 mmHg 64%
    18:00 +9°C° 0 mm 3 m/S 721 mmHg 72%
    19:00 +8°C° 0 mm 3 m/S 721 mmHg 79%
    20:00 +7°C° 0 mm 3 m/S 721 mmHg 80%
    21:00 +7°C° 0 mm 3 m/S 721 mmHg 81%
    22:00 +5°C° 0 mm 3 m/S 722 mmHg 83%
    23:00 +6°C° 0 mm 2 m/S 721 mmHg 84%

    Morgen, 1 Mai, Montag

    Zeit Temperatur Niederschläge Wind Luftdruck Luftfeuchtigkeit
    00:00 +5°C° 0 mm 2 m/S 721 mmHg 86%
    01:00 +5°C° 0 mm 2 m/S 721 mmHg 87%
    02:00 +4°C° 0 mm 2 m/S 721 mmHg 89%
    03:00 +4°C° 0 mm 2 m/S 720 mmHg 90%
    04:00 +4°C° 0 mm 2 m/S 720 mmHg 91%
    05:00 +4°C° 0 mm 3 m/S 720 mmHg 88%
    06:00 +5°C° 0 mm 3 m/S 720 mmHg 85%
    07:00 +6°C° 0 mm 4 m/S 720 mmHg 83%
    08:00 +7°C° 0 mm 4 m/S 720 mmHg 77%
    09:00 +10°C° 0 mm 4 m/S 720 mmHg 72%
    10:00 +12°C° 0 mm 5 m/S 720 mmHg 67%
    11:00 +12°C° 0 mm 5 m/S 720 mmHg 67%
    12:00 +13°C° 0 mm 5 m/S 719 mmHg 67%
    13:00 +14°C° 0 mm 5 m/S 719 mmHg 66%
    14:00 +14°C° 0 mm 4 m/S 719 mmHg 67%
    15:00 +14°C° 0 mm 4 m/S 719 mmHg 68%
    16:00 +14°C° 0 mm 4 m/S 719 mmHg 69%
    17:00 +13°C° 0 mm 3 m/S 719 mmHg 76%
    18:00 +11°C° 0 mm 3 m/S 719 mmHg 82%
    19:00 +10°C° 0 mm 2 m/S 719 mmHg 89%
    20:00 +9°C° 0 mm 2 m/S 719 mmHg 89%
    21:00 +8°C° 0 mm 2 m/S 720 mmHg 90%
    22:00 +7°C° 0 mm 2 m/S 720 mmHg 91%
    23:00 +7°C° 0,1 mm 2 m/S 721 mmHg 91%

    übermorgen, 2 Mai, Dienstag

    Zeit Temperatur Niederschläge Wind Luftdruck Luftfeuchtigkeit
    00:00 +7°C° 0,1 mm 2 m/S 721 mmHg 91%
    01:00 +7°C° 0,1 mm 3 m/S 721 mmHg 91%
    02:00 +7°C° 0,2 mm 3 m/S 721 mmHg 91%
    03:00 +5°C° 0,2 mm 3 m/S 722 mmHg 90%
    04:00 +5°C° 0,2 mm 3 m/S 722 mmHg 90%
    05:00 +5°C° 0,1 mm 3 m/S 722 mmHg 88%
    06:00 +7°C° 0,1 mm 3 m/S 723 mmHg 86%
    07:00 +7°C° 0,1 mm 3 m/S 723 mmHg 85%
    08:00 +8°C° 0 mm 3 m/S 724 mmHg 80%
    09:00 +10°C° 0 mm 3 m/S 724 mmHg 76%
    10:00 +11°C° 0 mm 3 m/S 724 mmHg 71%
    11:00 +13°C° 0 mm 2 m/S 724 mmHg 67%
    12:00 +14°C° 0 mm 2 m/S 724 mmHg 64%
    13:00 +15°C° 0 mm 1 m/S 724 mmHg 60%
    14:00 +15°C° 0 mm 1 m/S 724 mmHg 60%
    15:00 +16°C° 0 mm 1 m/S 724 mmHg 60%
    16:00 +16°C° 0 mm 1 m/S 723 mmHg 60%
    17:00 +14°C° 0 mm 1 m/S 723 mmHg 69%
    18:00 +12°C° 0 mm 1 m/S 723 mmHg 78%
    19:00 +10°C° 0 mm 1 m/S 723 mmHg 87%
    20:00 +9°C° 0 mm 1 m/S 723 mmHg 88%
    21:00 +8°C° 0 mm 1 m/S 723 mmHg 88%
    22:00 +7°C° 0 mm 1 m/S 723 mmHg 89%
    23:00 +7°C° 0 mm 1 m/S 723 mmHg 89%

    3 Mai, Mittwoch

    Zeit Temperatur Niederschläge Wind Luftdruck Luftfeuchtigkeit
    00:00 +7°C° 0 mm 1 m/S 723 mmHg 90%
    01:00 +7°C° 0 mm 1 m/S 722 mmHg 90%
    02:00 +7°C° 0 mm 1 m/S 722 mmHg 90%
    03:00 +7°C° 0 mm 1 m/S 722 mmHg 91%
    04:00 +8°C° 0 mm 1 m/S 722 mmHg 91%
    05:00 +9°C° 0 mm 1 m/S 722 mmHg 87%
    06:00 +11°C° 0 mm 1 m/S 722 mmHg 84%
    07:00 +13°C° 0 mm 1 m/S 722 mmHg 80%
    08:00 +14°C° 0,1 mm 2 m/S 722 mmHg 78%
    09:00 +15°C° 0,1 mm 2 m/S 722 mmHg 76%
    10:00 +16°C° 0,1 mm 2 m/S 722 mmHg 73%
    11:00 +17°C° 0,1 mm 3 m/S 722 mmHg 70%
    12:00 +18°C° 0,1 mm 3 m/S 721 mmHg 66%
    13:00 +19°C° 0,1 mm 3 m/S 721 mmHg 63%
    14:00 +19°C° 0,1 mm 3 m/S 721 mmHg 62%
    15:00 +19°C° 0,1 mm 3 m/S 721 mmHg 62%
    16:00 +19°C° 0,1 mm 3 m/S 720 mmHg 62%
    17:00 +17°C° 0,1 mm 3 m/S 720 mmHg 69%
    18:00 +15°C° 0,1 mm 2 m/S 720 mmHg 77%
    19:00 +13°C° 0,1 mm 2 m/S 719 mmHg 85%
    20:00 +12°C° 0 mm 2 m/S 719 mmHg 86%
    21:00 +10°C° 0 mm 2 m/S 720 mmHg 88%
    22:00 +9°C° 0 mm 2 m/S 720 mmHg 89%
    23:00 +9°C° 0,1 mm 1 m/S 720 mmHg 90%

    4 Mai, Donnerstag

    Zeit Temperatur Niederschläge Wind Luftdruck Luftfeuchtigkeit
    00:00 +9°C° 0,1 mm 1 m/S 720 mmHg 91%
    01:00 +9°C° 0,1 mm 1 m/S 719 mmHg 91%
    02:00 +8°C° 0 mm 1 m/S 719 mmHg 92%
    03:00 +8°C° 0 mm 1 m/S 719 mmHg 92%
    04:00 +8°C° 0 mm 1 m/S 719 mmHg 92%
    05:00 +9°C° 0 mm 1 m/S 719 mmHg 89%
    06:00 +11°C° 0 mm 1 m/S 720 mmHg 85%
    07:00 +13°C° 0 mm 1 m/S 720 mmHg 82%
    08:00 +14°C° 0,1 mm 1 m/S 720 mmHg 78%
    09:00 +15°C° 0,1 mm 2 m/S 720 mmHg 74%
    10:00 +16°C° 0,1 mm 2 m/S 720 mmHg 70%
    11:00 +18°C° 0,4 mm 1 m/S 720 mmHg 69%
    12:00 +18°C° 0,4 mm 1 m/S 719 mmHg 68%
    13:00 +19°C° 0,4 mm 1 m/S 719 mmHg 67%
    14:00 +18°C° 0,9 mm 2 m/S 719 mmHg 69%
    15:00 +17°C° 0,9 mm 2 m/S 719 mmHg 70%
    16:00 +17°C° 0,9 mm 2 m/S 718 mmHg 72%
    17:00 +16°C° 0,6 mm 2 m/S 718 mmHg 78%
    18:00 +14°C° 0,6 mm 1 m/S 718 mmHg 85%
    19:00 +12°C° 0,6 mm 1 m/S 718 mmHg 91%
    20:00 +12°C° 1 mm 1 m/S 718 mmHg 92%
    21:00 +11°C° 1 mm 1 m/S 718 mmHg 93%
    22:00 +11°C° 1 mm 1 m/S 719 mmHg 94%
    23:00 +11°C° 0,1 mm 1 m/S 719 mmHg 94%

    5 Mai, Freitag

    Zeit Temperatur Niederschläge Wind Luftdruck Luftfeuchtigkeit
    00:00 +10°C° 0,1 mm 1 m/S 719 mmHg 94%
    01:00 +10°C° 0,1 mm 1 m/S 718 mmHg 94%
    02:00 +8°C° 0,5 mm 2 m/S 719 mmHg 95%
    03:00 +8°C° 0,5 mm 2 m/S 719 mmHg 95%
    04:00 +8°C° 0,5 mm 2 m/S 719 mmHg 95%
    05:00 +9°C° 0,8 mm 2 m/S 719 mmHg 93%
    06:00 +9°C° 0,8 mm 2 m/S 719 mmHg 91%
    07:00 +10°C° 0,8 mm 3 m/S 720 mmHg 90%
    08:00 +11°C° 0,4 mm 3 m/S 720 mmHg 86%
    09:00 +12°C° 0,4 mm 4 m/S 720 mmHg 83%
    10:00 +13°C° 0,4 mm 4 m/S 720 mmHg 79%
    11:00 +13°C° 0,1 mm 4 m/S 720 mmHg 76%
    12:00 +14°C° 0,1 mm 5 m/S 720 mmHg 73%
    13:00 +14°C° 0,1 mm 5 m/S 720 mmHg 71%
    14:00 +14°C° 0 mm 5 m/S 720 mmHg 70%
    15:00 +14°C° 0 mm 6 m/S 720 mmHg 70%
    16:00 +14°C° 0 mm 6 m/S 720 mmHg 70%
    17:00 +13°C° 0 mm 5 m/S 720 mmHg 75%
    18:00 +12°C° 0 mm 5 m/S 720 mmHg 80%
    19:00 +10°C° 0 mm 4 m/S 721 mmHg 84%
    20:00 +10°C° 0 mm 4 m/S 721 mmHg 86%
    21:00 +8°C° 0 mm 4 m/S 721 mmHg 87%
    22:00 +8°C° 0 mm 4 m/S 722 mmHg 88%
    23:00 +8°C° 0 mm 3 m/S 722 mmHg 89%
    Mehr zeigen